Miscellaneous Local Product
Issued by NWS Hastings, NE

Home | Current Version | Previous Version | Graphics & Text | Print | Product List | Glossary On
Versions: 1 2 3 4 5 6 7 8 9 10 11 12 13 14 15 16 17 18 19 20 21 22 23 24 25 26 27 28 29 30 31 32 33 34 35 36 37 38 39 40 41 42 43 44 45 46 47 48 49 50
000
AXUS43 KGID 051102
MISGRI

GID CWA HOURLY WEATHER ROUNDUP
NATIONAL WEATHER SERVICE HASTINGS NE
600 AM CDT SUN JUL 05 2015

NOTE: "FAIR" INDICATES FEW OR NO CLOUDS BELOW 12,000 FEET WITH NO
SIGNIFICANT WEATHER AND/OR OBSTRUCTIONS TO VISIBILITY.

...SOUTH CENTRAL NEBRASKA...

CITY           SKY/WX    TMP DP  RH WIND       PRES   REMARKS
GRAND ISLAND   CLOUDY    71  64  78 S16       29.86F
HASTINGS       CLOUDY    71  64  78 S12G18    29.87F
KEARNEY        CLOUDY    72  63  73 S13       29.86S
ORD            LGT RAIN  71  63  75 W3        29.85R
YORK           MOCLDY    68  66  94 S13G18    29.88F
AURORA         CLOUDY    71  66  85 S15       29.86F
LEXINGTON      PTCLDY    72  66  82 S12G18    29.84S
HOLDREGE       CLOUDY    70  64  81 S9        29.86S
HEBRON         MOCLDY    71  64  78 S12       29.90S

...NEBRASKA PANHANDLE...

CITY           SKY/WX    TMP DP  RH WIND       PRES   REMARKS
CHADRON        CLEAR     63  60  90 NW5       29.80S
ALLIANCE       CLEAR     64  62  93 SE6       29.85F
SCOTTSBLUFF    PTCLDY    64  61  90 E3        29.87S
SIDNEY         CLEAR     59  58  96 CALM      29.91R

...WESTERN AND NORTH CENTRAL NEBRASKA...

CITY           SKY/WX    TMP DP  RH WIND       PRES   REMARKS
VALENTINE      CLEAR     73  53  49 SW10      29.77R
AINSWORTH      CLEAR     72  62  71 S12       29.79R
ONEILL         PTCLDY    68  66  92 S9        29.82F
BROKEN BOW     CLOUDY    71  65  81 CALM      29.86R
IMPERIAL       CLEAR     69  63  81 S9        29.86S
NORTH PLATTE   CLEAR     72  64  76 SE9       29.84F
MCCOOK         CLEAR     76  62  62 S14       29.84S

...EASTERN NEBRASKA...

CITY           SKY/WX    TMP DP  RH WIND       PRES   REMARKS
NORFOLK        CLOUDY    71  65  81 S16       29.83F
SO SIOUX CITY  MOCLDY    68  61  78 SE10      29.87F
TEKAMAH        PTCLDY    66  63  90 SE5       29.88F
COLUMBUS       MOCLDY    70  63  78 S12G20    29.82F
ALBION         PTCLDY    70  63  78 S12       29.84F
OMAHA EPPLEY   MOCLDY    70  63  78 S16       29.90F
OFFUTT AFB     PTCLDY    67  64  89 E9        29.90F
MILLARD        MOCLDY    68  64  86 SE7       29.90F
LINCOLN        MOCLDY    70  65  84 S9        29.90F
NEBRASKA CITY  PTCLDY    67  64  91 S9        29.94S
BEATRICE       PTCLDY    69  65  86 SE8       29.91F
FALLS CITY     PTCLDY    65  63  93 SE6       29.94F FOG

...NORTHERN KANSAS...

CITY           SKY/WX    TMP DP  RH WIND       PRES   REMARKS
GOODLAND       CLEAR     68  62  81 S14       29.90R
NORTON         SUNNY     73  63  68 SE13      29.85S
PHILLIPSBURG   CLEAR     73  66  78 E9        29.86F
SMITH CENTER   CLEAR     72  64  78 S5        29.88F
HAYS           CLOUDY    73  63  68 S10       29.89S
RUSSELL        PTCLDY    72  67  84 S14       29.87S
CONCORDIA      MOCLDY    71  66  84 SE10      29.90F
SALINA         PTCLDY    76  68  76 S12       29.91S
TOPEKA         PTCLDY    69  65  86 E6        29.96R



USA.gov is the U.S. government's official web portal to all federal, state and local government web resources and services.